"Pseudo-MPEC" for A118Bmh

Created 2024 Jul 29 21:22:02 UT using Find_Orb

Click here for an explanation of pseudo-MPECs

 
 Astrometry: 
     A118Bmh* C2024 07 17.46962921 28 42.991+00 15 00.40   ~7HHq 16.77oVNEOCPT05
     A118Bmh  C2024 07 17.47514421 26 43.306+00 00 37.80   ~7HHq 16.70oVNEOCPT05
     A118Bmh  C2024 07 17.47877321 25 25.982-00 08 38.33   ~7HHq 16.56oVNEOCPT05

Station data:
(T05) ATLAS-HKO, Haleakala  (N20.707551 W156.257010)  US/Hawaii.  Observers
   L. Denneau, A. Heinze, H. Weiland, J. Tonry, H. Flewelling, A.
   Fitzsimmons, D. Young, B. Stalder. Measurers L. Denneau, A. Heinze, J.
   Tonry. 0.5-m f/2.0 Schmidt + CCD.

Orbital elements:  A118Bmh
   Perihelion 2024 Oct 1.33740 +/- 46.9 TT =  8:05:51 (JD 2460584.83740)
Epoch 2024 Jul 17.0 TT = JDT 2460508.5   Earth MOID: 0.0088      AutoNEOCP
M 192.98470714 +/- 120              (J2000 ecliptic)
n   2.18785676 +/- 1.04             Peri.  356.75008 +/- 70
a   0.58765638 +/- 0.185            Node   115.16224 +/- 70
e   0.7534215 +/- 0.228             Incl.  137.69737 +/- 70
P   0.450/164.541d         H 25.30  G  0.15   U 12.8  SR
q 0.14490341 +/- 0.306    Q 1.03040934 +/- 8.15
From 3 observations 2024 July 17 (13.2 min); mean residual 7".65
Residuals in arcseconds: 
240717 T05  5.2+  2.6+    240717 T05 13.5-  6.9-    240717 T05  8.3+  4.3+    

Ephemerides (geocentric):
Date (UTC) HH   RA             Dec           delta  r     elong  mag " sig PA
---- --------  ------------   ------------  ------ ------ -----  --- --------
2024 07 29 21  13 07 06.594   -21 45 38.23  .28799 0.9928  77.4 25.6  29d  94
2024 07 29 22  13 07 04.856   -21 45 31.66  .28896 0.9926  77.3 25.6  29d  94
2024 07 29 23  13 07 03.129   -21 45 25.11  .28994 0.9925  77.3 25.6  29d  94
2024 07 30 00  13 07 01.411   -21 45 18.60  .29091 0.9923  77.2 25.6  29d  94
2024 07 30 01  13 06 59.704   -21 45 12.12  .29189 0.9921  77.2 25.6  29d  94
2024 07 30 02  13 06 58.006   -21 45 05.67  .29286 0.9919  77.1 25.6  29d  94
2024 07 30 03  13 06 56.319   -21 44 59.25  .29383 0.9918  77.1 25.6  29d  94
2024 07 30 04  13 06 54.641   -21 44 52.87  .29481 0.9916  77.0 25.6  29d  94
2024 07 30 05  13 06 52.972   -21 44 46.51  .29578 0.9914  77.0 25.7  29d  94
2024 07 30 06  13 06 51.313   -21 44 40.18  .29676 0.9913  76.9 25.7  29d  94
2024 07 30 07  13 06 49.664   -21 44 33.89  .29773 0.9911  76.9 25.7  29d  94
2024 07 30 08  13 06 48.024   -21 44 27.62  .29870 0.9909  76.9 25.7  29d  94
2024 07 30 09  13 06 46.393   -21 44 21.38  .29967 0.9907  76.8 25.7  29d  94
2024 07 30 10  13 06 44.771   -21 44 15.17  .30065 0.9906  76.8 25.7  29d  94
2024 07 30 11  13 06 43.158   -21 44 08.99  .30162 0.9904  76.7 25.7  29d  94
2024 07 30 12  13 06 41.553   -21 44 02.84  .30259 0.9902  76.7 25.7  29d  94
2024 07 30 13  13 06 39.958   -21 43 56.71  .30357 0.9901  76.6 25.7  29d  94
2024 07 30 14  13 06 38.371   -21 43 50.61  .30454 .98988  76.6 25.7  29d  94
2024 07 30 15  13 06 36.793   -21 43 44.54  .30551 .98970  76.5 25.7  29d  94
2024 07 30 16  13 06 35.224   -21 43 38.49  .30648 .98953  76.5 25.7  29d  94
2024 07 30 17  13 06 33.662   -21 43 32.48  .30745 .98935  76.5 25.7  29d  94
2024 07 30 18  13 06 32.110   -21 43 26.48  .30842 .98918  76.4 25.7  29d  94
2024 07 30 19  13 06 30.565   -21 43 20.51  .30940 .98900  76.4 25.7  29d  94
2024 07 30 20  13 06 29.028   -21 43 14.57  .31037 .98882  76.3 25.7  29d  94
2024 07 30 21  13 06 27.500   -21 43 08.65  .31134 .98864  76.3 25.8  29d  94
2024 07 30 22  13 06 25.979   -21 43 02.76  .31231 .98847  76.2 25.8  29d  94
2024 07 30 23  13 06 24.466   -21 42 56.89  .31328 .98829  76.2 25.8  29d  94
2024 07 31 00  13 06 22.962   -21 42 51.05  .31425 .98811  76.1 25.8  29d  94
2024 07 31 01  13 06 21.464   -21 42 45.23  .31522 .98793  76.1 25.8  29d  94
2024 07 31 02  13 06 19.975   -21 42 39.43  .31619 .98775  76.0 25.8  29d  94
2024 07 31 03  13 06 18.493   -21 42 33.66  .31716 .98757  76.0 25.8  29d  94
2024 07 31 04  13 06 17.018   -21 42 27.91  .31813 .98739  76.0 25.8  29d  94
2024 07 31 05  13 06 15.551   -21 42 22.18  .31910 .98721  75.9 25.8  29d  94
2024 07 31 06  13 06 14.091   -21 42 16.47  .32007 .98703  75.9 25.8  29d  94
2024 07 31 07  13 06 12.638   -21 42 10.79  .32104 .98685  75.8 25.8  29d  94
2024 07 31 08  13 06 11.192   -21 42 05.12  .32201 .98667  75.8 25.8  29d  94
2024 07 31 09  13 06 09.754   -21 41 59.48  .32298 .98648  75.7 25.8  29d  94
2024 07 31 10  13 06 08.322   -21 41 53.86  .32395 .98630  75.7 25.8  29d  94
2024 07 31 11  13 06 06.897   -21 41 48.26  .32492 .98612  75.6 25.8  29d  94
2024 07 31 12  13 06 05.479   -21 41 42.69  .32589 .98594  75.6 25.8  29d  93
2024 07 31 13  13 06 04.068   -21 41 37.13  .32686 .98575  75.6 25.8  29d  93
2024 07 31 14  13 06 02.664   -21 41 31.59  .32783 .98557  75.5 25.8  29d  93
2024 07 31 15  13 06 01.266   -21 41 26.07  .32880 .98538  75.5 25.9  29d  93
2024 07 31 16  13 05 59.875   -21 41 20.57  .32976 .98520  75.4 25.9  29d  93
2024 07 31 17  13 05 58.490   -21 41 15.10  .33073 .98501  75.4 25.9  29d  93
2024 07 31 18  13 05 57.112   -21 41 09.64  .33170 .98483  75.3 25.9  29d  93
2024 07 31 19  13 05 55.740   -21 41 04.20  .33267 .98464  75.3 25.9  29d  93
2024 07 31 20  13 05 54.374   -21 40 58.77  .33363 .98446  75.3 25.9  29d  93